Theta_e
318 317 316 316 316 315 315 315 315 316 316 316 316 316 316 316 316 317 317 317 317 317 318 318 318 318 319 319 320 320 320 315 312 309 308 311 319 327 327 327 327 327 327 320 314 311 308 308 308 307 308 308 306 304 306 306 307 305 297 295 293 295 294 298 297 299 302 300 302 304 306 304 302 307 308 307 306 306 306 306 309 308 307 309 311 313 313 314
318 317 316 316 315 316 315 315 315 315 315 316 316 316 316 316 316 316 316 317 317 317 317 318 317 318 318 318 319 320 317 314 309 309 308 317 323 324 329 328 329 330 326 315 310 307 304 304 305 307 307 304 306 303 304 302 306 299 297 296 292 296 298 302 301 302 301 300 303 304 305 304 303 305 306 302 303 305 305 306 308 308 310 312 313 313 314 314
317 317 317 316 316 316 315 315 315 315 315 315 315 315 315 315 316 316 316 316 317 317 317 317 318 317 318 318 318 319 315 312 310 306 311 325 330 328 329 329 329 326 319 309 309 307 305 304 305 304 304 302 303 301 301 300 302 301 297 293 295 299 300 301 302 301 303 303 302 302 304 304 305 304 307 301 302 304 302 303 306 306 307 310 312 314 316 317
316 317 317 316 316 316 316 315 314 314 314 315 315 315 315 315 315 315 315 316 316 317 317 317 317 317 317 317 319 318 314 310 305 307 316 328 328 328 329 330 329 325 316 312 312 309 307 306 304 304 301 299 300 301 298 301 298 301 297 293 296 300 297 300 302 302 303 303 302 302 303 302 304 305 305 303 301 301 303 306 305 305 307 309 311 313 315 314
316 317 317 317 316 316 315 315 315 315 315 316 316 315 315 315 315 315 315 316 316 317 317 317 317 317 317 317 318 318 312 301 304 311 316 322 328 328 329 330 326 321 315 310 309 307 306 305 304 302 300 297 299 299 298 301 302 300 297 299 299 300 297 300 301 302 302 303 302 302 299 300 305 304 303 302 298 299 303 306 308 308 309 309 310 311 312 312
317 317 317 317 316 316 315 314 314 314 314 314 315 315 315 315 315 315 315 315 316 316 317 317 317 316 317 317 317 315 306 291 311 312 314 328 329 330 330 328 322 315 312 309 307 306 304 302 302 299 298 297 297 295 299 300 302 293 298 299 300 300 298 301 301 301 301 300 300 299 301 303 301 301 303 302 301 303 307 308 308 308 309 310 310 310 309 309
317 317 317 317 316 315 314 313 313 313 313 313 313 314 315 315 315 315 315 315 315 315 315 316 316 316 316 317 315 312 305 305 309 316 321 326 329 330 329 325 318 312 311 307 306 304 303 302 301 299 298 297 298 297 299 298 300 297 294 299 298 300 298 301 300 301 301 300 298 301 302 299 299 295 301 299 302 304 305 306 306 307 307 308 307 308 308 308
317 316 316 316 315 315 314 313 313 313 313 313 313 314 314 314 314 314 314 314 314 314 315 315 315 316 316 314 309 305 305 303 310 315 318 329 329 329 324 320 316 313 310 307 306 305 303 300 299 300 298 296 297 297 297 296 297 295 295 298 298 299 299 300 300 299 299 299 300 300 297 297 298 298 299 297 301 302 303 305 305 305 305 305 305 306 306 307
316 317 316 316 315 314 314 313 313 313 312 313 313 313 314 314 314 313 313 313 313 313 314 315 315 315 317 313 306 302 302 312 311 312 317 326 326 322 320 316 315 311 309 307 307 306 304 302 300 300 295 296 298 296 297 294 293 296 296 297 297 297 298 298 298 298 298 298 299 296 295 297 298 300 297 299 301 303 304 303 303 303 303 304 304 305 306 306
317 317 316 316 315 314 314 313 312 313 312 312 313 313 314 313 313 313 313 313 313 313 313 314 314 315 311 308 304 299 308 310 310 312 318 323 321 320 316 315 314 310 307 306 306 306 303 303 301 302 300 298 297 295 295 294 294 295 295 295 295 296 297 298 296 297 298 297 297 294 295 296 300 298 293 299 301 303 303 302 303 303 303 303 304 305 305 305
317 317 316 316 315 314 313 313 313 312 312 312 312 313 313 312 312 312 312 312 313 312 312 313 314 314 309 308 302 299 313 314 311 312 318 321 319 315 314 314 313 309 308 307 306 307 306 304 306 303 301 297 297 296 296 297 297 296 296 296 295 296 297 297 296 296 297 295 297 296 295 298 299 297 294 299 302 302 300 301 301 302 302 302 303 304 305 305
317 317 316 316 315 314 314 313 313 312 312 312 312 312 312 312 312 312 312 312 312 312 312 312 313 313 308 305 302 304 313 311 311 311 312 313 312 309 308 313 312 311 309 306 307 308 307 307 306 302 297 300 295 297 297 298 296 296 295 291 294 296 295 298 296 298 298 295 299 297 293 292 293 292 297 299 300 301 300 300 300 301 301 302 303 303 303 304
317 316 316 315 314 313 313 313 312 312 312 312 312 312 312 311 311 311 311 311 311 311 311 312 312 312 306 298 303 313 312 311 311 309 311 312 309 309 308 310 313 311 311 308 307 310 308 307 306 301 303 300 297 294 297 298 297 297 296 293 292 293 293 298 299 296 293 296 294 294 285 290 294 296 298 300 300 300 299 299 300 300 301 302 302 302 303 304
316 316 315 314 314 313 312 312 312 312 312 312 311 311 311 310 311 311 311 310 311 310 310 311 312 309 305 299 309 311 312 312 311 308 309 311 310 309 308 309 310 310 309 310 309 307 308 306 306 305 304 300 297 302 297 297 296 292 295 294 289 289 290 294 294 293 291 295 294 294 285 288 293 296 299 300 300 299 297 298 299 300 300 301 302 302 302 303
316 315 315 314 313 312 311 312 312 312 312 311 310 310 309 309 310 310 310 309 310 310 311 311 314 306 298 301 311 315 314 312 307 308 311 308 307 306 307 308 308 309 309 310 309 307 308 307 304 300 298 300 299 296 294 294 294 294 290 288 292 289 291 295 296 295 291 293 294 292 286 289 293 296 298 299 299 298 297 297 298 299 299 300 300 301 301 302
315 315 315 314 314 312 311 311 311 311 310 310 309 309 309 309 309 310 310 309 310 310 312 308 308 305 298 295 305 314 312 305 306 309 310 312 308 305 309 307 307 307 307 305 304 305 306 306 301 299 298 297 295 294 292 292 293 292 289 287 287 290 291 291 293 293 294 292 293 291 287 290 291 296 298 299 298 297 296 296 297 298 298 299 299 300 300 301
314 314 314 313 312 311 310 311 311 310 310 309 308 308 308 309 309 309 308 309 311 314 311 303 306 307 295 309 311 303 305 308 306 309 308 309 309 309 307 306 305 304 305 305 305 306 304 301 298 297 297 295 294 294 289 288 288 289 291 286 289 287 289 287 293 292 292 290 289 292 288 290 292 295 297 298 298 297 296 296 297 298 299 299 300 300 300 300
313 313 313 312 311 311 310 310 310 309 308 307 307 307 307 309 310 309 308 309 312 310 311 311 307 302 299 306 299 303 305 307 307 306 308 308 310 309 308 304 301 304 304 301 303 300 300 298 297 295 294 293 292 291 287 284 286 285 286 286 287 289 288 287 287 290 290 291 288 290 290 290 292 295 296 297 298 297 297 297 298 298 299 299 300 300 301 301
313 313 312 311 311 310 310 310 309 309 307 307 307 308 309 309 311 309 305 306 302 296 294 296 297 290 293 301 305 306 307 307 307 307 305 307 308 308 306 306 304 300 297 297 297 298 298 297 295 292 290 291 290 291 290 290 290 288 287 286 286 284 286 287 291 293 290 289 288 289 288 291 293 295 297 298 299 298 297 298 298 298 299 299 299 300 300 301
313 313 312 310 310 310 310 309 308 308 307 305 304 303 301 299 299 298 303 302 299 300 300 301 302 304 300 301 302 305 307 308 305 306 308 308 306 305 304 303 299 300 297 295 295 295 298 292 290 290 292 294 294 293 293 292 291 289 288 287 286 286 287 290 291 292 292 288 288 290 291 291 293 294 296 298 299 298 298 297 298 298 299 299 300 300 301 301
313 312 311 310 310 310 310 309 308 307 307 306 302 298 294 294 291 290 295 297 301 303 302 301 303 302 300 302 304 305 303 303 306 305 307 311 308 305 300 300 297 294 296 296 295 295 295 290 291 294 295 295 293 293 293 291 290 288 287 286 286 287 285 290 290 293 291 288 289 292 291 291 293 295 297 298 298 297 297 297 298 298 299 300 300 300 301 302
313 312 311 310 310 310 310 308 308 307 307 305 300 295 297 297 300 300 296 291 299 302 302 302 303 301 305 303 305 306 304 301 301 304 307 308 304 301 300 298 295 294 294 293 293 292 291 289 294 296 295 293 292 291 290 289 288 289 287 287 286 287 289 291 291 291 289 288 288 291 290 291 293 296 298 299 299 300 300 300 300 300 300 301 301 301 302 302
312 312 311 311 310 310 309 308 308 308 305 300 296 297 296 302 302 303 299 296 293 301 301 300 297 298 300 303 305 304 300 298 298 303 304 307 301 301 299 296 295 296 293 294 292 291 289 293 297 297 294 292 290 289 288 288 288 287 287 285 285 289 286 286 290 288 290 288 288 290 288 291 295 298 299 300 300 300 301 300 300 300 300 300 301 301 302 302
313 312 311 311 311 310 309 308 308 305 302 300 298 298 302 303 304 303 297 292 292 296 297 301 300 300 299 298 304 303 300 300 300 300 309 304 300 302 298 297 295 293 292 293 294 293 292 293 291 293 292 292 290 289 288 288 288 289 288 288 287 288 289 288 289 291 291 293 290 290 290 293 297 296 298 301 301 299 300 300 299 299 300 300 301 300 300 299
312 312 312 311 310 310 308 308 303 301 303 301 298 302 304 304 304 303 295 290 290 291 300 298 300 300 301 307 305 300 301 301 301 305 307 305 299 298 298 300 297 292 294 294 294 293 294 296 293 293 290 291 291 289 289 290 288 290 290 289 290 290 289 290 290 288 288 290 289 290 285 288 296 297 298 299 299 298 300 298 298 299 300 299 298 299 300 301
312 312 312 311 311 310 309 301 300 302 299 297 299 303 305 305 304 302 295 285 282 291 292 290 301 295 307 298 303 302 300 294 302 303 307 306 309 303 297 295 297 293 295 292 293 293 294 294 294 294 293 291 291 290 292 291 289 287 290 292 291 291 290 289 288 288 286 284 290 292 284 283 293 294 297 297 297 298 298 297 298 298 298 298 299 299 299 300
312 312 312 311 311 310 300 295 303 301 294 296 301 303 302 303 304 299 287 283 278 292 289 295 295 297 304 300 301 302 286 290 301 303 304 306 302 307 296 295 295 293 295 295 291 290 292 290 290 291 292 292 291 289 292 291 289 288 292 290 290 289 288 289 289 288 286 290 289 289 289 284 285 292 296 298 297 296 296 297 298 299 298 299 299 299 300 301
312 312 312 312 311 309 300 301 298 295 296 300 302 301 300 301 302 300 286 273 274 299 291 292 297 306 303 299 301 295 294 296 294 297 303 304 303 300 297 295 294 294 293 293 286 293 293 290 290 289 289 290 290 294 293 292 290 290 290 291 291 291 291 290 289 288 289 285 284 286 286 283 284 291 298 297 295 294 295 296 297 299 300 301 300 299 300 300
312 312 312 312 311 309 303 299 298 296 302 303 301 299 300 302 300 291 283 273 285 290 304 293 306 301 297 299 296 295 295 297 293 297 301 303 304 300 294 296 296 295 295 295 290 292 292 292 293 294 291 289 293 291 292 292 289 292 291 292 291 291 291 290 289 288 288 284 282 286 285 283 285 292 295 296 293 293 295 297 298 300 300 301 300 300 301 301
312 312 313 312 310 304 301 301 299 303 303 303 299 299 302 299 292 282 275 269 294 284 294 297 296 294 297 293 293 295 293 294 296 298 301 299 300 300 295 297 296 293 292 294 291 293 292 292 292 292 291 294 292 290 290 292 292 289 292 291 291 291 289 288 288 287 285 281 285 284 284 284 282 290 292 293 294 295 296 297 298 299 300 301 303 301 300 299
312 313 313 312 305 302 300 295 299 302 302 300 299 300 298 290 283 279 271 281 294 290 294 293 291 297 293 292 289 293 293 293 294 297 294 298 296 297 296 293 298 293 291 291 291 293 293 293 291 293 296 292 294 290 289 290 291 291 290 289 289 290 287 286 285 286 281 282 285 284 284 285 280 288 295 295 294 294 295 295 296 297 298 299 300 301 300 299
313 313 313 310 308 303 297 295 300 301 301 301 300 295 289 279 283 275 276 294 282 288 290 289 291 293 292 292 291 290 290 292 295 295 293 293 292 291 291 289 290 284 284 286 286 292 289 291 294 293 293 294 291 291 290 291 290 290 289 288 284 284 284 282 282 279 281 282 283 284 284 282 282 288 293 294 295 297 298 297 297 297 297 298 299 300 300 299
313 313 313 311 308 301 303 303 302 301 302 301 297 293 283 279 273 281 281 285 281 291 288 295 291 291 292 290 290 290 292 290 294 293 294 293 292 293 295 293 294 290 283 287 286 285 288 290 291 293 292 294 294 287 288 286 289 289 287 286 283 280 279 276 281 279 280 284 283 284 285 281 289 292 296 295 296 296 295 296 297 297 297 297 298 298 297 299
313 313 309 309 306 305 303 302 302 302 300 299 294 286 282 274 276 290 283 285 284 288 292 290 291 291 289 289 291 291 287 292 291 292 293 289 290 289 291 293 292 289 288 286 284 286 282 285 288 289 287 293 292 292 291 290 289 289 292 289 286 285 281 277 280 279 280 281 283 283 282 283 284 291 296 296 296 296 295 295 295 295 296 297 296 296 297 298
313 312 309 308 305 304 301 302 301 302 298 295 289 282 276 276 283 280 283 284 285 290 288 292 290 288 288 289 288 290 292 288 293 291 290 289 287 289 289 290 293 292 290 284 288 285 285 285 287 287 287 287 290 291 291 292 290 290 290 291 286 284 289 282 282 281 280 280 280 280 283 289 290 296 296 298 297 295 292 290 291 293 294 294 296 298 297 297
311 309 309 303 302 301 301 301 301 301 296 291 284 279 278 283 280 284 284 292 289 288 289 290 290 287 287 287 287 287 292 288 290 289 289 289 291 288 292 292 291 292 288 285 289 283 283 283 285 288 287 289 289 288 290 292 284 287 287 284 287 289 289 284 280 277 276 277 278 286 284 288 293 294 296 295 294 295 293 292 291 292 293 295 296 297 296 297
306 307 301 301 300 301 301 302 301 299 296 289 283 277 283 284 288 288 293 289 291 293 290 286 286 285 284 284 287 285 288 290 288 289 285 290 287 290 288 290 294 293 293 291 286 292 285 286 285 287 286 287 287 287 289 289 290 288 284 288 288 290 289 285 280 280 280 277 280 280 281 284 284 284 297 295 294 295 295 294 293 294 293 294 296 296 295 296
305 303 303 300 299 301 302 302 300 297 292 286 281 284 286 284 291 289 293 291 291 292 290 287 286 289 284 285 285 285 287 285 286 287 286 288 286 296 291 290 293 293 293 294 289 289 290 283 284 283 285 288 287 289 290 290 289 289 287 288 286 281 281 283 282 275 276 276 278 281 281 281 284 286 291 292 292 293 294 295 295 294 293 293 294 295 296 297
304 301 295 299 301 302 301 302 298 293 286 282 281 282 286 286 290 289 292 294 294 292 286 288 285 287 287 285 286 286 287 283 287 286 284 287 284 293 291 293 290 293 294 294 288 289 290 284 283 284 285 287 289 289 284 286 290 288 289 287 285 285 285 281 283 282 281 277 277 280 279 282 287 289 291 291 293 294 293 294 294 295 294 294 293 294 296 297
299 295 292 300 301 302 302 300 293 288 284 280 283 284 287 285 289 291 289 293 290 289 287 288 287 284 286 286 287 285 287 286 286 286 286 288 288 295 291 295 292 289 292 294 290 292 287 288 281 284 285 286 284 287 287 288 285 285 286 285 285 285 285 285 283 282 281 278 278 276 277 284 290 292 291 292 293 294 293 294 295 296 296 295 294 294 295 296
301 294 289 300 301 302 300 293 285 282 282 285 287 285 286 284 287 289 291 291 291 294 291 289 288 285 286 284 284 287 285 286 286 286 287 287 288 286 293 292 290 287 291 289 290 290 286 286 282 284 283 283 287 288 286 290 291 289 287 285 287 284 282 279 278 280 278 280 277 276 277 284 291 292 293 294 293 293 293 294 295 296 296 295 295 296 296 297
296 287 288 299 301 299 291 282 283 286 285 283 283 286 285 292 286 287 288 289 290 289 291 290 289 288 287 286 287 285 286 284 285 286 287 286 290 291 292 294 291 291 289 286 288 292 291 287 285 281 285 286 286 284 283 284 285 285 288 288 290 288 288 283 278 279 276 279 277 278 276 282 292 293 292 292 292 292 292 292 293 295 296 296 297 297 298 299
293 287 299 299 301 296 289 282 285 284 282 286 290 287 289 289 287 289 288 288 286 290 289 287 289 288 287 287 285 285 287 285 286 285 288 287 287 291 290 291 292 292 293 289 291 288 290 286 282 284 286 283 283 284 285 284 286 286 287 287 287 286 287 286 285 284 282 279 279 279 276 283 291 290 290 290 291 291 290 289 293 294 295 297 299 299 299 300
292 288 291 298 300 297 287 278 280 281 284 286 286 286 291 288 288 286 286 289 287 286 286 287 289 290 287 288 287 284 288 283 287 287 286 288 288 289 290 291 293 290 290 289 289 292 285 286 285 281 281 282 282 283 284 283 285 286 287 288 288 288 287 284 283 283 280 280 283 280 276 282 290 291 290 290 291 292 294 294 293 294 297 298 298 299 300 300
286 288 286 292 297 295 285 286 284 283 283 283 284 283 285 286 288 290 289 287 290 288 288 286 289 290 287 287 286 286 287 287 284 289 289 287 290 286 286 290 293 291 291 291 293 294 288 287 284 279 277 275 274 275 279 282 282 285 285 286 287 287 285 283 280 281 278 281 282 280 281 287 289 291 294 294 295 295 296 297 297 299 298 297 299 299 299 300
285 281 285 286 291 290 290 290 286 286 284 283 282 284 286 284 288 290 291 289 291 290 289 289 288 291 288 286 285 285 285 287 285 284 286 286 287 286 285 288 291 290 291 292 292 292 286 285 286 286 284 282 284 286 286 287 284 283 284 285 285 287 288 287 286 283 279 282 280 283 285 286 288 290 291 293 294 294 295 296 296 297 297 298 299 299 300 300
288 285 284 279 286 286 284 287 285 286 284 287 281 284 283 284 287 285 290 285 290 288 287 288 288 286 285 286 284 284 285 285 286 284 285 286 286 286 286 286 288 288 291 290 292 289 283 283 285 286 287 289 289 289 286 288 285 286 285 284 286 285 286 285 283 281 287 283 279 284 286 285 286 289 290 291 293 294 295 295 296 296 297 298 298 298 296 298
283 286 291 288 284 279 282 281 285 285 287 288 284 288 284 284 284 283 287 289 291 290 285 286 287 287 287 286 285 282 284 284 285 283 286 285 285 285 285 287 288 289 289 289 291 289 286 283 286 285 285 288 288 287 285 285 285 286 287 287 285 285 285 283 284 287 287 282 281 285 286 285 287 289 290 291 292 293 294 295 296 297 297 297 297 297 297 298
287 286 285 289 284 285 285 285 286 285 286 287 285 287 284 284 283 286 286 285 287 285 288 282 284 286 287 288 286 283 284 280 281 285 285 284 284 284 283 285 287 287 289 287 287 285 286 285 284 285 285 286 287 287 287 285 285 285 285 286 287 286 285 285 286 287 287 286 288 288 288 287 290 291 291 292 293 294 294 296 296 296 296 296 297 297 297 297
284 285 284 286 285 286 286 286 285 285 283 286 282 284 286 286 284 286 287 285 282 284 289 285 286 288 287 287 287 284 285 286 285 283 286 285 284 286 285 287 285 286 287 286 287 286 286 284 285 284 282 284 286 287 287 286 285 284 286 287 286 286 286 286 287 287 288 287 288 288 287 287 292 294 293 294 294 294 294 294 294 295 296 296 296 296 296 297
286 285 284 282 282 284 285 285 284 283 282 284 282 284 286 286 286 289 287 290 287 284 286 285 287 288 288 287 286 286 289 289 289 288 288 287 284 288 286 286 291 285 286 286 286 285 286 284 282 283 280 282 283 285 285 286 285 284 284 286 286 284 283 284 284 287 286 284 286 286 284 285 291 293 293 294 294 293 292 293 294 295 296 295 295 295 296 297
286 286 285 284 279 284 284 286 285 284 279 283 284 284 285 286 288 289 285 290 290 291 289 288 289 288 286 285 285 287 290 291 291 291 291 293 294 290 292 290 292 288 285 286 288 286 285 284 281 282 279 280 282 282 282 282 281 279 281 284 286 287 287 288 288 288 288 289 285 283 284 290 292 294 292 293 293 293 293 293 293 295 295 295 295 295 296 297
Wind_Speed
6 5 5 6 5 6 6 6 6 6 7 7 8 8 8 8 8 7 7 7 7 8 9 10 10 10 11 11 11 12 12 8 9 8 7 13 6 3 8 4 6 7 8 4 4 3 4 3 4 4 4 4 3 5 3 5 3 4 8 10 15 14 16 13 16 11 8 9 8 8 7 7 11 10 6 5 11 11 12 15 12 9 9 10 11 11 13 16
6 5 5 6 6 7 6 5 5 5 6 7 8 9 9 10 9 9 8 8 8 8 9 10 10 11 11 11 11 11 10 6 9 11 16 12 3 7 8 7 9 8 7 4 4 3 4 4 5 5 5 5 5 3 3 3 5 8 8 11 16 13 13 10 11 12 13 14 13 13 13 14 16 13 8 9 17 16 16 17 15 16 14 12 12 14 17 18
7 6 5 4 4 5 6 6 5 5 6 7 8 9 9 10 10 10 9 9 8 8 9 10 10 11 11 12 12 9 7 5 8 14 5 6 5 6 9 8 9 9 5 2 2 4 4 3 2 7 5 6 5 5 5 4 6 10 10 13 14 12 11 5 8 12 12 13 16 16 16 15 13 9 7 12 18 18 20 16 15 17 16 15 14 14 12 12
8 7 6 5 5 5 5 5 5 5 6 7 8 9 10 10 10 10 9 9 9 9 9 10 11 12 12 12 12 8 6 5 9 1 4 6 7 8 10 9 8 7 3 1 1 2 1 2 4 6 3 6 3 3 5 5 5 3 8 11 12 8 9 11 12 14 13 13 14 16 14 15 14 14 13 15 17 21 19 17 18 20 19 18 17 17 15 15
9 8 6 5 4 5 5 5 5 5 7 8 8 8 10 11 10 10 9 9 9 9 9 10 11 12 13 12 12 5 5 10 3 2 4 5 1 7 8 9 7 5 3 5 5 3 3 4 5 4 4 4 3 4 9 5 7 2 10 13 14 7 12 14 13 13 14 14 14 12 14 16 14 16 17 18 20 20 12 12 12 13 15 17 18 19 17 17
8 8 6 4 4 4 4 2 7 7 7 8 8 8 9 10 10 10 10 9 9 9 9 9 10 11 12 11 9 5 2 8 2 2 2 2 4 7 8 9 7 6 7 5 3 4 5 4 5 5 4 5 6 7 3 8 6 10 11 13 13 14 15 12 13 10 11 14 14 14 15 15 16 17 17 19 25 19 16 16 19 20 20 20 20 19 20 19
10 9 7 7 5 5 2 1 3 8 10 10 9 8 8 9 10 10 10 10 9 8 8 9 8 10 10 8 5 5 7 12 3 2 2 5 7 8 9 8 8 6 5 4 5 4 5 4 6 3 4 5 7 7 8 4 7 10 12 11 13 13 17 15 16 14 13 15 16 15 14 13 16 21 15 21 23 19 19 18 20 20 20 20 21 21 22 21
9 10 8 4 4 4 3 3 1 4 8 10 8 8 8 8 9 10 10 10 10 9 8 8 8 8 9 6 3 4 5 10 3 4 2 5 6 10 8 5 5 5 5 5 5 5 4 6 5 3 6 7 2 5 1 6 8 10 12 12 14 13 15 15 15 14 14 15 15 16 17 17 17 19 16 28 20 19 17 16 17 19 20 21 22 22 23 23
10 10 9 7 6 5 5 3 3 4 6 8 9 8 8 8 8 9 10 10 10 10 9 8 7 7 3 3 3 7 10 6 2 1 2 7 7 8 8 5 4 6 3 3 3 3 5 4 4 6 4 5 2 8 6 6 9 11 14 13 12 11 12 11 11 13 14 10 9 12 17 17 19 21 25 25 21 19 19 22 22 22 21 21 22 22 22 22
11 10 9 8 7 6 5 4 4 6 8 9 9 9 8 8 7 7 9 9 10 10 10 9 7 5 2 1 3 9 2 2 1 1 5 7 7 8 3 2 7 5 5 3 3 4 7 2 3 3 6 8 3 8 2 6 8 3 9 11 13 16 16 12 14 17 15 12 10 15 20 20 19 13 12 3 7 14 17 18 18 17 19 21 19 19 20 22
11 11 10 8 6 5 5 5 3 7 8 9 9 7 8 8 7 7 8 9 9 10 10 10 6 3 5 3 6 11 3 2 2 3 4 7 8 7 6 5 6 6 5 2 5 7 3 4 3 2 2 3 2 4 5 4 4 9 10 13 15 17 16 14 14 18 11 11 17 18 21 21 18 10 14 18 19 19 18 18 19 19 20 20 22 21 20 20
11 11 8 7 7 7 6 6 6 8 7 9 10 10 9 8 8 8 8 8 8 8 9 9 8 0 2 4 10 9 1 4 3 4 3 3 4 1 2 2 6 5 6 5 5 5 4 2 5 5 4 4 5 4 7 2 4 7 7 13 16 17 17 16 17 18 11 14 10 5 12 16 15 17 18 20 20 20 20 21 21 22 20 19 20 19 17 17
11 8 8 8 7 6 5 5 6 10 11 10 10 9 9 8 8 9 9 8 7 7 7 8 3 4 3 7 11 11 3 3 2 2 3 3 5 3 3 1 3 2 4 5 3 3 5 4 6 8 3 4 3 6 2 5 7 8 10 10 16 14 14 10 9 6 4 8 3 3 11 8 9 13 16 17 15 15 17 17 17 17 17 16 17 16 16 16
11 10 8 6 7 7 6 6 6 7 8 8 7 8 9 9 9 10 10 9 8 7 6 6 3 3 6 9 1 0 5 3 1 4 7 5 4 3 3 3 4 2 1 3 3 2 3 1 4 2 2 6 4 4 8 6 4 8 10 5 11 12 10 4 3 4 8 2 3 6 12 12 14 15 14 14 14 15 18 17 17 17 17 16 13 13 15 16
9 9 9 9 7 6 4 4 3 5 8 8 7 7 9 10 11 11 11 10 9 6 6 7 3 3 5 9 5 5 5 2 6 9 5 8 9 3 5 4 4 4 3 3 3 2 1 4 3 4 3 1 3 6 8 6 5 5 8 8 5 7 12 8 6 8 10 1 4 5 10 12 14 13 12 14 14 15 16 17 18 17 17 17 14 14 15 16
10 10 10 9 9 6 5 4 1 4 6 7 8 9 9 11 12 11 10 9 8 8 5 4 6 6 6 11 1 5 5 5 5 1 1 5 10 8 6 4 3 3 2 3 2 2 2 2 2 2 3 3 6 6 8 8 7 4 6 11 12 10 12 13 2 3 6 7 5 8 12 17 16 10 12 12 13 14 15 18 18 20 22 20 18 16 15 17
11 9 8 7 7 6 5 3 2 5 7 7 8 8 10 12 12 11 9 9 4 2 4 2 4 5 5 2 1 4 5 3 1 2 4 0 5 8 8 6 3 4 5 4 2 2 2 3 1 2 2 5 2 3 7 10 8 6 4 8 10 12 12 13 8 4 1 3 6 7 11 18 20 19 19 19 17 18 17 20 21 20 18 18 16 16 16 16
12 11 10 8 6 6 5 1 5 6 6 7 9 9 11 13 12 8 6 5 3 2 3 1 2 3 13 3 7 4 4 1 3 4 3 2 3 9 6 4 2 5 6 5 1 5 1 3 1 6 2 4 4 5 7 10 8 10 9 9 10 10 10 15 13 1 4 4 11 17 19 23 21 20 19 19 19 19 19 19 21 20 20 18 17 16 16 16
12 10 7 5 6 6 4 3 3 6 6 4 7 11 12 9 4 4 4 5 5 2 3 7 7 8 3 3 3 3 1 2 2 2 5 8 3 3 5 4 6 8 5 5 4 6 2 2 2 4 9 7 9 10 10 12 12 12 9 10 11 12 14 13 15 10 3 14 14 17 16 18 20 21 22 20 18 16 19 20 18 19 19 18 17 17 15 15
12 10 8 7 8 7 4 3 3 3 4 4 3 4 2 3 3 3 5 8 10 6 2 6 13 4 4 2 3 3 1 2 4 1 4 1 8 8 4 3 3 3 4 6 6 3 1 6 7 9 10 10 8 11 13 14 8 7 6 9 12 13 17 18 15 10 1 8 13 17 19 20 23 23 23 23 19 17 19 20 18 17 16 16 16 16 16 17
12 10 9 10 9 9 8 7 4 3 5 4 1 2 3 3 4 4 5 12 15 12 11 6 16 9 2 3 2 6 5 2 2 5 5 4 1 11 6 5 6 6 7 1 2 3 4 7 12 14 15 8 4 5 9 12 9 11 11 10 12 10 15 16 15 13 1 5 10 14 21 23 22 22 22 20 17 18 18 18 18 19 17 15 16 16 16 16
12 12 12 12 11 11 10 8 8 7 3 3 2 4 3 4 2 1 2 7 10 20 17 15 2 11 3 4 1 3 4 3 4 6 4 6 9 10 7 9 8 10 6 5 3 4 7 11 13 7 1 2 3 4 6 9 11 10 9 8 9 11 10 17 13 1 2 4 12 15 21 22 22 22 22 18 16 14 13 12 14 14 14 12 12 13 14 12
15 14 14 13 13 11 10 9 7 8 5 5 6 7 6 3 4 1 2 5 11 8 15 13 10 16 12 2 3 2 7 9 8 10 10 7 8 6 9 8 8 4 5 9 9 7 9 11 13 5 5 4 4 3 4 5 6 7 7 7 10 7 5 10 2 4 3 2 13 15 19 21 23 18 16 13 10 11 9 9 11 10 12 13 13 11 10 12
15 15 15 14 13 14 13 11 9 7 8 9 9 9 2 4 3 3 1 5 7 3 10 8 15 7 13 10 8 10 11 4 3 10 6 10 10 5 6 10 8 5 10 11 14 12 13 4 3 6 6 6 6 5 5 5 8 8 10 10 10 11 10 8 12 11 15 12 5 12 16 16 8 8 12 3 7 6 8 9 9 9 10 11 10 10 11 15
15 15 15 15 14 14 14 10 7 8 6 8 11 9 6 5 3 3 3 4 4 6 3 2 6 7 3 5 7 11 9 3 8 3 9 12 8 5 6 3 4 10 9 9 8 11 16 8 5 3 4 5 5 6 8 7 9 8 11 13 13 13 14 11 10 10 9 5 3 15 13 10 6 13 10 8 6 8 6 6 6 5 5 4 6 8 8 9
17 16 15 15 16 16 11 6 5 5 7 9 4 3 4 5 4 2 2 2 7 4 3 7 10 2 9 5 7 7 8 9 3 3 8 5 2 3 5 6 4 8 9 6 8 7 7 3 7 11 9 9 9 11 5 9 8 9 5 10 13 13 9 8 10 6 8 10 3 6 4 13 18 16 8 6 11 13 7 3 2 1 1 1 1 3 5 6
18 18 17 17 17 15 8 5 4 7 6 7 4 3 3 5 4 4 1 2 7 7 8 3 2 1 2 4 8 8 5 4 2 4 5 1 10 0 7 6 3 2 2 4 1 8 5 3 4 3 7 8 7 9 8 11 7 9 3 1 3 5 6 7 5 5 9 7 8 5 6 7 12 18 4 9 13 5 2 2 3 2 2 3 4 5 5 5
20 18 18 18 19 19 4 7 9 7 4 2 3 4 5 6 6 3 2 3 5 5 4 3 1 2 1 3 2 3 4 2 5 4 2 1 1 3 5 6 10 8 5 5 12 3 5 5 7 7 7 6 8 9 7 12 8 1 2 2 2 4 6 5 5 7 6 6 9 2 1 3 7 13 8 7 7 1 2 4 8 10 9 6 5 6 7 6
21 20 20 20 20 19 4 6 9 7 5 6 5 5 5 6 5 2 2 4 1 4 2 7 3 4 5 4 5 2 2 2 1 3 1 3 4 1 8 6 4 3 6 10 12 2 1 1 5 8 6 7 6 2 6 11 10 1 2 2 1 2 3 4 5 5 5 4 10 1 5 4 13 12 5 1 1 3 5 8 12 11 10 8 6 5 6 7
22 21 22 23 17 8 2 3 4 4 7 6 6 7 8 6 4 2 0 9 2 1 4 3 4 6 8 11 6 1 3 1 2 4 3 5 6 1 4 2 3 4 8 6 9 7 2 1 2 3 8 3 4 3 2 8 3 1 2 5 4 5 4 3 3 3 3 5 6 4 3 3 6 10 2 4 2 5 10 10 12 13 12 11 3 1 6 7
23 22 24 25 13 8 8 5 6 8 8 6 7 8 7 2 3 2 10 6 5 3 2 4 4 7 13 13 7 3 0 1 4 9 7 3 6 3 3 3 2 3 4 7 12 11 10 4 3 4 2 4 2 4 2 1 2 3 2 3 8 7 4 4 1 2 3 5 5 1 0 6 5 9 0 3 1 3 7 13 15 15 16 15 15 9 5 6
23 24 27 20 11 11 13 9 11 8 9 9 7 5 4 2 3 9 9 4 3 5 5 5 3 10 12 1 2 9 8 3 7 9 10 11 11 13 12 10 8 5 6 9 8 4 10 15 8 3 2 6 5 4 3 3 3 4 3 3 4 6 5 5 3 3 5 4 4 1 1 5 14 16 17 21 16 16 10 9 13 16 17 16 14 13 8 7
23 23 28 18 14 10 8 7 12 9 10 9 6 2 2 4 9 18 4 2 1 3 2 5 8 10 11 4 5 5 3 5 5 6 3 5 9 12 12 8 5 2 2 3 8 2 5 3 5 7 4 6 8 9 5 3 7 6 6 4 4 7 4 5 3 2 3 2 1 2 2 8 12 14 18 18 12 6 8 11 13 13 13 13 13 12 10 8
24 24 18 16 14 13 9 13 11 13 11 7 7 3 2 4 18 3 12 7 1 4 5 4 10 7 8 8 3 10 5 2 8 7 7 5 9 10 12 11 6 5 3 2 2 4 3 2 6 10 5 5 13 12 5 1 8 7 3 6 5 4 3 5 2 5 3 3 1 3 4 4 4 2 2 4 7 8 5 7 6 8 8 8 9 8 7 7
23 22 16 13 11 10 13 12 14 14 10 8 6 5 14 18 13 3 5 5 0 2 4 5 9 9 7 4 0 6 1 5 8 6 9 9 10 9 10 13 13 7 4 2 5 2 8 6 3 4 1 1 10 1 2 6 1 4 2 1 3 8 1 7 2 4 4 5 5 4 5 2 7 11 16 15 9 3 1 4 5 6 5 5 6 7 8 7
14 12 15 9 12 11 13 12 16 14 11 8 7 7 17 15 4 3 3 5 3 6 8 5 4 5 5 5 1 7 4 2 8 4 6 11 2 7 6 4 13 19 12 11 5 6 3 5 4 1 1 1 1 1 1 2 7 5 6 6 3 4 5 3 2 3 2 3 7 2 6 7 10 14 12 1 2 1 3 1 4 6 6 4 7 7 8 8
9 9 12 9 11 14 14 14 14 13 9 9 12 13 16 6 3 4 3 8 3 13 10 6 6 7 5 6 7 8 5 5 5 8 6 6 7 10 5 8 6 14 19 10 3 3 2 1 2 2 5 2 1 2 2 3 2 7 5 4 4 1 4 1 4 1 3 5 5 2 7 8 4 6 4 8 8 9 9 9 5 4 4 8 7 6 7 8
4 8 11 13 14 17 15 15 17 11 9 10 14 19 3 10 3 3 4 5 6 1 5 10 1 10 6 4 4 8 7 7 8 6 4 9 4 9 12 4 10 16 20 12 4 2 2 5 3 1 2 2 1 3 4 2 3 3 2 2 3 3 4 1 0 3 2 5 6 4 7 8 7 11 7 8 8 10 9 8 7 8 7 6 7 7 6 6
5 6 7 10 15 18 17 16 14 15 9 11 12 15 6 6 4 5 3 2 1 5 5 6 3 4 3 4 2 3 12 9 10 10 4 6 5 8 12 10 6 14 15 12 3 2 2 4 2 1 2 2 1 3 7 7 2 1 1 3 1 2 1 5 2 1 0 6 5 4 3 8 7 5 4 10 8 6 6 6 6 5 5 4 5 6 7 7
8 4 5 11 16 17 18 16 13 12 9 14 14 13 3 8 8 5 4 5 4 4 6 5 2 3 3 3 6 5 8 5 8 8 5 2 8 2 7 5 4 8 9 15 6 3 4 1 5 4 2 1 5 8 8 11 10 5 5 4 3 1 2 2 1 2 2 2 2 5 7 2 4 6 5 11 9 4 4 4 5 5 4 2 3 5 4 4
4 5 2 13 16 18 16 12 10 15 13 10 11 10 10 5 1 7 4 6 3 3 2 3 6 10 4 3 4 2 6 8 5 6 7 3 8 3 10 9 7 8 7 3 5 6 4 6 9 5 4 7 2 3 4 2 3 8 10 9 10 8 5 4 5 3 1 3 4 2 10 9 9 6 9 5 1 2 3 4 6 6 7 4 4 4 3 5
7 8 4 18 20 23 19 14 9 10 7 13 18 15 9 6 1 3 2 2 7 4 3 1 1 5 4 6 2 6 5 5 8 5 6 7 6 6 3 7 8 16 14 10 12 6 2 2 2 5 7 3 3 2 2 3 1 2 3 4 8 9 7 6 8 4 1 2 4 1 4 10 2 1 4 2 2 2 1 2 6 8 9 8 3 4 4 5
11 5 3 21 19 25 18 15 12 12 10 16 3 6 1 5 6 5 4 4 5 4 1 3 9 8 5 4 2 4 7 4 8 10 4 9 7 10 3 10 10 11 3 3 6 3 5 2 4 8 1 2 2 1 1 1 1 1 5 3 4 12 12 9 3 2 5 4 3 3 4 6 2 2 3 3 4 3 2 5 6 7 9 11 12 5 7 8
3 3 2 13 20 20 17 13 12 14 13 6 11 9 8 6 8 8 12 10 6 4 9 7 1 6 5 3 3 5 7 4 9 9 4 3 4 3 9 10 17 9 8 9 6 10 6 5 6 2 2 2 2 2 2 1 1 6 5 8 10 5 2 2 4 1 4 9 6 7 12 4 0 1 3 3 4 7 6 7 6 8 12 11 13 12 6 8
3 1 1 9 13 16 19 11 16 18 13 18 15 17 13 8 9 15 11 13 8 3 4 11 10 4 3 3 4 3 6 15 4 9 7 3 4 3 3 11 13 10 2 1 3 11 4 5 10 8 9 7 6 5 6 7 10 5 3 5 11 14 11 6 7 7 9 6 13 10 14 13 1 2 6 8 12 17 16 12 10 7 11 15 14 13 12 9
5 6 4 6 12 11 10 3 3 11 17 16 13 15 15 13 5 12 16 13 13 11 9 1 3 8 10 4 8 10 11 5 8 1 6 5 3 1 0 3 7 2 2 3 9 10 2 1 8 9 9 11 7 3 3 7 6 6 9 12 13 16 15 14 4 8 12 6 13 14 17 18 13 6 13 14 12 15 19 17 13 14 15 12 10 11 12 11
1 9 8 8 3 12 7 7 7 6 15 15 11 9 19 20 11 2 13 9 14 15 7 10 7 7 11 14 13 11 8 11 10 8 9 4 2 1 1 4 2 3 4 2 6 5 1 2 9 9 11 9 2 0 5 4 5 7 9 11 13 15 16 18 13 11 10 9 18 11 18 17 17 5 20 16 17 18 16 16 17 15 14 14 13 12 14 13
8 3 10 9 14 11 11 13 11 14 12 16 15 11 19 19 17 13 9 17 7 11 8 4 14 18 16 15 11 8 11 11 7 15 10 1 3 2 2 2 5 2 3 1 3 5 3 5 5 10 13 8 7 5 5 3 6 5 10 10 13 15 16 17 19 14 13 14 15 14 22 22 20 8 22 22 17 18 16 17 19 19 17 16 13 10 14 17
3 4 3 4 10 3 20 22 21 23 21 19 10 16 14 19 22 18 12 10 12 10 19 15 19 23 21 14 10 11 12 8 17 17 8 4 5 4 2 3 1 2 2 1 3 1 1 9 3 6 9 9 11 10 7 10 7 7 10 12 13 15 18 20 18 17 19 20 18 13 14 23 18 12 15 21 22 18 10 13 14 14 17 18 13 12 16 19
3 5 4 3 2 2 6 10 9 10 13 14 10 13 13 16 19 16 11 10 11 15 15 20 19 20 20 16 15 16 18 21 17 6 9 8 3 7 6 5 4 1 2 4 2 3 5 3 7 3 5 10 9 8 8 8 10 14 15 15 16 14 14 17 14 16 17 22 17 14 20 25 11 12 18 17 16 20 18 13 19 20 18 16 14 13 16 18
1 1 2 4 4 5 2 7 12 13 10 12 12 10 14 18 18 14 15 13 12 11 16 23 25 21 13 17 18 22 25 19 15 10 6 11 14 6 8 4 7 6 5 3 2 2 4 4 3 1 3 9 4 8 9 9 12 16 20 20 18 16 15 11 13 14 13 19 13 18 21 18 9 15 17 9 13 21 26 24 15 14 13 11 9 13 17 16
1 2 1 2 3 4 7 4 8 9 15 13 13 16 14 20 14 11 10 8 14 14 15 21 19 11 9 14 21 26 29 19 15 10 8 7 7 3 6 4 6 10 6 9 4 5 6 2 4 3 5 12 1 4 1 1 6 13 24 16 17 17 15 13 16 13 20 16 11 16 20 13 10 9 13 16 15 22 20 21 10 2 2 5 10 12 12 14
Wind_Direction
286 266 263 275 281 292 298 318 325 331 331 330 325 328 324 326 328 333 339 341 342 343 338 335 339 336 332 333 329 330 331 319 310 288 265 258 256 160 169 119 155 168 165 176 162 204 225 207 192 155 194 218 154 238 120 212 187 199 230 243 249 253 252 255 253 254 276 281 271 272 265 281 275 282 284 293 262 251 262 263 265 241 238 254 268 279 286 286
282 268 268 274 281 277 291 296 317 323 326 330 332 328 328 326 326 326 333 336 336 333 332 332 331 336 332 328 331 334 334 307 296 288 264 289 264 225 166 150 139 150 169 198 219 218 270 246 219 179 203 228 115 247 142 191 187 224 242 244 255 253 265 268 260 263 269 267 271 270 275 275 273 288 294 294 280 279 271 264 262 262 257 250 249 254 262 269
272 270 260 268 272 286 294 295 305 319 324 324 323 320 324 322 323 327 325 329 328 326 327 327 330 329 332 331 325 336 335 298 288 279 316 12 292 204 173 149 148 158 204 258 217 250 268 300 212 203 208 243 165 222 189 206 186 227 248 252 254 256 262 240 264 263 263 271 272 273 270 267 270 268 289 266 282 279 266 270 270 266 269 270 268 262 255 258
259 265 252 247 273 290 287 296 293 307 316 315 314 319 319 318 317 319 321 320 324 324 325 326 326 330 327 328 332 323 283 293 277 303 92 15 52 139 149 150 150 164 151 91 143 184 102 159 180 218 187 233 152 213 211 184 213 173 232 250 263 272 259 254 246 250 255 257 263 265 272 272 269 268 264 271 278 266 264 264 267 271 275 279 278 275 270 266
262 259 251 245 264 274 285 288 310 311 319 327 322 320 318 315 314 314 317 318 322 322 324 324 326 325 328 326 322 313 284 296 328 27 43 322 136 125 138 139 139 160 178 127 119 121 198 176 162 174 220 227 199 210 235 205 218 272 239 259 266 263 261 267 255 249 255 257 265 266 269 266 278 268 263 264 259 261 270 278 270 263 270 275 275 273 272 270
252 249 239 226 224 232 237 295 295 296 300 310 316 313 312 311 315 315 316 318 317 321 321 324 324 324 324 330 307 280 292 288 69 95 282 98 119 128 130 129 131 140 142 150 186 156 176 167 179 176 197 235 217 223 193 224 170 250 245 245 251 255 261 264 256 244 237 253 250 256 259 267 262 268 265 263 256 264 271 271 270 271 274 274 274 274 273 270
247 243 221 212 204 204 201 193 268 296 294 291 293 300 304 308 313 314 312 316 315 317 322 320 324 325 328 327 288 270 233 260 148 101 182 176 131 135 128 131 139 155 174 156 172 187 217 199 222 207 223 244 242 240 251 212 200 245 269 271 259 252 253 259 261 258 250 256 260 263 270 256 267 268 268 261 257 267 274 273 271 272 274 273 271 269 267 266
256 251 247 235 187 187 215 234 201 286 293 290 287 292 298 303 309 313 312 312 315 312 318 315 319 325 332 319 253 224 209 257 226 121 344 139 139 128 125 127 153 159 193 216 186 212 204 219 223 160 241 252 78 228 133 256 207 244 256 259 267 267 264 265 267 268 264 257 258 260 261 258 257 260 272 262 271 276 281 278 272 267 263 262 260 260 260 261
249 247 244 234 215 203 198 206 249 259 293 297 284 283 294 300 303 308 309 310 312 312 306 313 310 329 16 311 271 287 252 247 40 76 158 146 138 135 155 155 182 177 201 213 229 243 206 241 244 211 289 230 201 258 245 264 259 222 253 275 280 270 271 267 268 262 258 259 248 256 253 253 252 256 256 270 275 276 267 263 260 257 256 254 254 252 253 255
246 251 250 249 240 238 247 245 263 287 295 289 287 286 291 299 303 308 312 309 307 308 301 302 313 312 11 260 219 257 289 86 73 18 169 143 138 145 184 160 165 185 192 186 164 180 213 241 248 221 258 270 232 253 115 223 282 48 284 280 278 279 279 272 265 268 265 259 241 243 256 256 252 237 261 144 232 242 241 246 252 250 250 250 248 248 249 252
251 251 249 236 245 248 242 252 274 296 295 295 289 285 292 299 306 307 306 309 310 305 303 290 312 336 236 207 223 246 113 153 49 81 122 142 145 172 187 170 183 191 228 145 224 210 241 273 146 114 226 247 173 244 219 252 326 287 289 290 278 274 265 256 253 259 261 261 237 235 254 263 270 254 261 265 257 250 252 253 255 252 250 253 253 253 253 255
247 246 240 234 234 225 231 252 282 288 294 290 292 291 289 296 302 302 299 303 302 302 298 294 284 213 265 235 227 229 59 74 101 74 96 157 147 86 44 180 186 207 205 227 221 211 209 230 175 199 283 86 248 294 248 328 279 287 301 292 285 285 280 265 255 259 228 253 272 244 273 263 245 246 248 250 251 254 255 256 257 258 257 254 257 255 252 251
242 241 240 233 226 247 261 273 281 289 290 285 287 294 296 295 303 303 300 297 293 291 292 294 309 263 253 256 240 232 119 148 12 50 88 96 106 81 78 81 189 204 236 240 242 191 178 183 208 229 253 248 291 277 45 272 284 286 266 271 293 289 279 269 257 287 228 255 110 182 278 282 271 235 241 248 251 250 253 254 253 255 257 254 250 252 250 248
237 234 224 205 212 229 256 292 302 306 295 288 294 299 303 302 304 301 295 288 291 286 280 269 262 221 229 254 264 108 219 241 242 252 225 155 178 106 127 101 95 103 50 216 69 70 146 205 233 271 17 243 266 23 283 259 209 272 300 273 272 290 288 158 207 151 273 165 174 171 272 283 274 265 256 255 255 253 256 258 256 255 256 256 247 249 251 247
241 228 221 224 243 254 257 251 310 314 300 295 298 312 310 311 298 294 294 291 278 275 250 232 221 220 227 269 271 263 138 121 245 232 159 178 208 178 178 143 87 63 59 75 122 84 128 146 172 214 232 41 297 275 273 277 265 265 294 275 253 254 280 269 234 238 266 153 183 217 264 270 270 265 262 261 259 256 257 256 257 258 258 256 249 243 250 251
236 238 237 240 240 238 210 228 180 298 296 299 307 302 313 299 291 285 286 288 284 264 250 217 200 217 299 278 296 107 153 193 224 202 140 221 194 218 136 126 120 104 169 72 74 126 97 170 222 2 301 196 238 270 286 290 271 211 236 275 280 278 291 303 233 177 215 293 214 221 280 288 282 268 249 252 251 248 252 258 259 259 258 257 256 251 249 256
229 229 227 225 233 250 246 236 268 273 291 292 300 298 293 291 289 283 271 267 256 266 230 201 175 202 261 89 9 246 225 156 69 136 127 343 217 146 134 133 159 122 98 106 120 171 87 215 98 220 175 269 312 266 287 270 272 263 197 272 278 283 298 290 289 161 157 217 293 226 252 263 274 278 274 269 257 257 259 263 262 260 259 256 255 252 246 249
236 234 227 224 236 248 241 187 262 281 291 305 308 306 293 292 291 293 241 236 228 273 205 251 188 218 252 172 242 213 50 130 134 111 79 70 162 148 150 158 90 133 142 121 156 201 164 202 152 259 232 204 207 223 242 271 303 306 301 291 286 277 262 276 290 49 312 273 279 283 268 272 273 274 271 266 260 256 260 261 262 261 261 258 254 255 251 249
224 224 223 220 220 230 233 223 236 263 293 317 329 311 293 279 273 214 208 194 154 139 192 192 182 189 267 196 102 85 128 78 101 176 137 138 128 105 80 64 137 149 170 210 148 193 148 198 203 245 249 216 218 218 234 267 285 287 289 286 290 290 292 286 290 305 349 307 295 281 278 286 289 287 282 277 271 265 258 257 259 258 259 259 255 254 250 246
218 219 215 202 196 205 224 199 224 235 264 287 345 323 284 168 168 194 209 212 229 217 3 179 205 345 355 142 158 56 98 212 159 63 127 194 147 154 112 157 103 252 177 216 142 190 119 220 224 231 239 239 229 219 242 266 297 291 277 271 274 284 284 282 282 298 329 301 272 275 281 284 285 283 281 279 277 265 256 255 255 254 253 252 252 251 250 248
208 202 202 199 194 185 190 191 202 244 113 128 269 290 218 206 193 230 172 233 236 265 264 237 209 228 307 39 98 166 153 155 3 148 154 146 175 151 175 156 181 207 209 333 158 93 216 235 241 233 241 260 289 261 257 267 266 264 273 276 280 269 278 285 294 307 209 263 287 289 289 285 281 282 278 277 278 267 257 255 256 255 252 252 252 254 252 253
202 200 200 200 192 193 215 209 207 219 191 174 227 224 275 273 352 340 302 280 219 229 243 247 254 275 233 216 354 294 317 165 175 159 149 178 168 197 155 189 179 221 118 135 152 201 215 232 245 239 110 78 242 243 245 249 262 255 256 271 283 276 274 283 276 15 87 241 287 304 300 293 288 280 279 281 275 266 262 253 255 259 265 261 258 258 261 260
202 202 203 200 194 193 194 198 180 210 210 210 222 231 243 142 140 54 256 274 276 206 218 225 227 240 239 168 218 173 215 204 200 177 179 187 141 243 146 188 203 190 144 190 209 210 244 245 255 264 145 174 214 209 226 243 241 252 243 247 256 286 329 303 156 136 176 265 293 307 295 286 280 276 266 260 264 273 275 264 259 261 266 263 263 269 275 276
207 198 197 196 196 196 191 196 187 193 206 223 237 222 113 130 164 303 297 259 301 243 201 212 208 213 218 180 188 183 206 229 175 193 161 170 167 147 177 196 187 184 212 195 218 227 230 92 119 105 139 178 213 182 202 225 264 220 233 254 268 273 260 235 298 317 306 278 278 286 286 280 273 302 312 292 234 263 268 259 256 251 247 265 279 281 269 270
202 199 196 194 191 192 200 189 210 220 200 219 239 231 159 162 142 83 312 276 209 272 100 301 171 229 186 58 139 183 220 290 228 49 170 187 138 133 208 117 193 223 214 193 229 250 254 206 114 115 144 189 231 244 207 237 270 269 221 226 247 261 274 276 291 322 313 295 106 5 333 310 321 311 306 327 329 307 293 280 302 307 286 272 278 284 288 270
198 197 196 193 185 191 182 195 224 176 190 224 228 215 178 162 167 167 268 303 274 166 63 240 150 235 125 150 138 163 105 230 165 167 159 206 100 181 98 197 187 243 177 161 222 251 264 94 188 236 225 226 231 254 220 183 259 277 282 199 237 253 272 286 291 314 304 314 17 36 298 295 311 308 335 353 331 342 45 56 55 91 187 190 307 310 302 301
196 194 191 190 184 175 161 224 106 133 203 238 153 146 144 148 158 186 250 243 278 172 167 10 233 100 238 131 161 158 197 207 94 105 160 168 187 343 211 179 126 34 84 147 360 239 161 175 177 206 217 222 232 249 187 186 233 258 69 230 232 251 246 264 273 262 270 295 279 206 226 270 299 300 57 336 328 345 134 102 133 161 240 304 316 319 318 319
194 190 188 183 190 178 188 129 144 162 207 71 137 113 128 139 135 190 217 324 268 78 124 191 66 349 123 140 220 235 7 93 148 193 354 46 160 148 225 197 194 178 173 175 232 48 185 158 192 188 199 208 229 240 135 190 203 317 47 189 227 252 272 267 266 280 295 319 308 155 183 259 251 271 296 332 329 20 317 313 325 329 337 335 324 326 315 319
191 186 180 183 188 185 127 145 156 181 152 135 125 123 127 155 196 218 77 240 187 86 40 91 244 80 73 127 176 50 217 312 312 82 144 93 3 219 204 206 211 191 184 212 244 177 25 331 208 204 185 220 202 134 178 175 218 103 112 172 262 246 234 243 259 280 286 296 286 260 175 268 288 274 300 142 175 280 306 326 317 322 325 317 325 329 328 328
190 182 177 180 182 155 128 93 160 128 124 126 133 133 149 163 183 177 137 247 114 150 86 110 169 157 150 153 196 173 201 34 28 133 137 173 149 66 59 17 169 178 224 245 265 277 73 156 34 201 223 236 111 83 180 202 106 73 185 266 242 230 232 189 245 262 269 243 263 81 207 269 301 293 327 326 24 347 321 316 317 318 318 312 271 251 322 327
190 181 179 176 188 168 132 177 163 143 136 115 129 133 151 202 201 126 232 214 49 109 84 159 149 134 159 160 184 177 8 162 150 159 143 144 155 63 140 132 115 220 253 259 253 250 253 201 211 230 60 87 132 118 87 329 9 325 282 319 316 271 170 201 172 190 248 268 105 105 295 218 242 285 203 178 157 268 298 303 309 312 313 313 316 333 344 328
193 182 181 182 167 142 174 188 158 148 140 133 137 139 212 147 2 203 226 9 237 163 168 155 132 171 173 25 41 172 171 112 172 176 168 180 176 187 197 196 155 173 246 220 250 138 237 232 204 144 271 183 160 227 154 144 155 210 231 265 294 292 331 276 160 218 199 271 115 74 238 249 231 245 278 288 286 293 314 318 308 306 305 308 314 325 335 321
193 182 181 181 156 172 182 127 141 149 137 132 122 184 203 165 224 226 216 207 237 108 195 71 158 163 168 139 200 150 353 192 157 195 124 179 189 209 205 224 191 252 246 132 232 239 264 94 168 196 122 211 190 210 187 209 176 181 204 217 250 276 270 266 269 311 294 248 23 170 47 268 272 276 257 261 278 346 324 306 299 298 296 303 312 325 324 315
201 183 183 179 174 172 147 144 149 143 142 144 135 162 28 173 236 107 197 220 188 9 61 99 128 130 163 183 170 158 180 215 164 187 196 168 196 209 214 226 210 219 220 164 239 192 280 229 182 158 209 123 200 217 246 295 151 196 158 201 227 238 248 289 273 282 320 340 237 147 331 262 324 212 331 258 282 286 277 292 318 306 301 309 315 305 318 333
211 190 182 176 164 160 145 146 147 150 145 153 155 198 184 221 235 175 202 170 112 90 60 105 132 140 200 269 92 234 283 177 188 143 194 177 208 209 190 204 197 196 190 209 214 170 227 269 70 10 6 339 197 49 64 103 138 155 160 47 240 234 195 256 2 307 318 320 287 172 228 295 256 320 301 300 309 289 11 347 312 325 338 323 328 2 360 1
227 197 180 171 167 159 147 146 148 146 152 166 154 195 213 211 221 113 224 104 119 134 132 108 126 168 196 207 197 201 246 257 169 170 211 217 243 205 200 197 182 189 178 197 152 195 80 234 62 124 210 180 72 118 138 229 217 150 153 207 203 18 224 256 137 107 193 200 248 198 268 261 276 270 268 205 173 70 150 148 2 355 341 322 23 14 13 8
234 176 195 161 163 155 149 147 145 143 164 188 183 211 221 234 188 159 180 155 169 133 151 175 203 169 191 213 194 180 184 103 178 184 218 163 265 217 218 232 183 181 208 184 207 250 220 110 67 174 187 54 349 310 58 43 312 118 218 182 91 304 4 218 271 164 258 279 282 125 262 288 9 314 99 334 346 354 16 20 359 10 355 27 12 22 13 9
245 195 189 175 164 154 145 148 140 149 168 195 209 225 54 228 243 174 85 103 110 225 153 207 246 160 219 174 204 150 196 185 169 177 225 174 264 159 182 192 186 196 202 219 273 135 152 262 139 326 25 83 180 212 124 79 11 298 18 360 222 182 192 119 257 264 264 265 288 231 267 252 233 267 310 328 353 351 2 7 16 19 12 4 356 2 11 5
247 189 217 175 154 149 147 144 138 160 165 200 214 239 219 247 7 243 206 137 154 148 202 229 188 216 145 189 104 128 162 189 155 194 171 201 229 173 189 179 212 203 199 178 218 169 245 239 129 154 158 69 211 203 202 170 162 78 203 170 41 305 298 165 213 352 22 288 321 267 121 287 184 239 273 297 299 342 349 356 10 355 7 2 351 348 354 359
231 221 240 138 158 145 144 139 146 166 179 201 205 225 75 224 222 274 263 202 228 181 235 218 205 266 175 220 144 159 203 208 164 200 224 171 209 129 188 206 177 154 185 192 185 12 208 144 257 104 266 188 203 193 222 166 175 173 201 195 158 212 346 335 303 218 239 263 263 313 304 258 222 208 237 270 288 315 307 308 327 316 312 314 334 328 323 323
228 241 229 152 157 142 126 119 157 183 196 226 230 229 221 207 229 225 249 235 251 326 207 188 173 215 170 114 251 142 164 197 194 204 206 231 202 227 197 177 135 125 123 102 243 200 204 177 228 136 166 217 226 52 350 299 192 184 180 201 188 158 186 194 230 80 266 219 242 235 274 298 287 137 227 236 96 261 248 249 290 305 306 299 280 278 276 303
217 225 198 166 162 141 133 163 198 184 205 195 207 203 211 169 228 264 258 226 217 233 357 159 241 215 168 211 145 165 167 188 206 219 227 225 207 252 352 143 147 145 146 180 199 178 188 115 208 188 212 215 79 54 339 340 355 27 254 211 184 203 211 211 247 183 107 231 37 341 349 273 338 136 48 59 270 276 261 219 288 308 314 311 261 236 252 255
220 226 83 161 170 145 159 192 175 185 207 215 195 37 187 231 205 184 221 207 206 191 210 215 215 217 243 175 130 170 174 217 178 205 181 207 231 216 131 144 136 156 101 85 69 231 111 203 206 253 263 96 111 99 137 333 67 203 238 245 189 211 203 225 257 141 191 125 207 201 232 240 68 34 125 159 220 271 237 202 267 294 297 306 316 309 322 318
224 138 150 174 181 163 172 181 183 203 213 219 219 226 201 219 195 197 221 220 203 173 207 211 207 222 239 122 134 185 172 244 207 205 280 207 249 62 158 158 159 174 167 200 165 168 166 205 205 188 216 186 176 156 171 86 229 232 216 192 212 214 139 66 84 123 245 186 208 190 236 254 96 282 198 214 213 230 229 195 202 303 315 317 313 309 318 309
105 355 72 187 204 186 196 180 187 194 196 205 197 211 203 217 223 216 202 215 221 229 185 228 217 121 189 163 175 169 192 207 261 207 235 192 234 67 320 175 186 183 232 209 104 164 209 159 169 202 203 210 195 187 208 210 207 196 243 206 202 201 176 145 218 182 238 182 208 222 250 246 183 2 309 305 312 307 303 314 311 295 294 297 304 306 307 300
187 202 168 192 206 227 231 237 281 202 193 200 210 215 202 218 206 210 206 226 213 227 227 171 27 184 218 166 215 218 229 233 225 246 183 218 221 345 351 255 218 270 306 222 158 159 195 144 211 205 215 234 236 151 43 85 104 178 212 200 197 206 195 203 214 208 214 200 215 208 231 266 253 284 283 276 277 283 294 297 299 299 288 274 269 282 293 304
281 224 160 198 193 230 233 222 211 204 212 184 213 163 209 212 201 149 187 221 210 217 220 222 214 186 211 209 219 226 227 239 235 255 234 179 286 301 21 177 253 338 308 299 201 121 97 220 216 241 246 258 61 311 160 193 199 193 187 202 207 193 196 205 202 223 184 240 251 172 233 252 256 92 270 275 276 277 279 288 294 288 284 287 291 289 299 295
217 234 202 190 184 196 217 233 212 217 221 193 213 165 212 202 206 209 185 219 195 191 201 228 223 225 221 205 203 221 213 222 211 234 223 51 117 242 62 98 186 315 345 323 247 210 195 236 189 190 238 243 239 218 154 188 238 237 221 207 198 199 199 207 216 213 183 215 251 156 211 237 250 196 256 269 272 267 277 283 281 284 287 285 282 303 301 291
247 318 279 246 218 198 205 203 197 209 212 206 210 209 209 205 209 205 191 177 202 195 195 219 216 218 220 205 196 222 210 204 230 225 204 199 184 135 124 54 299 41 261 258 204 264 133 248 206 193 235 219 227 226 202 229 233 236 234 227 220 194 204 208 217 211 216 234 237 238 224 234 243 236 233 258 270 276 268 273 275 272 273 275 289 301 293 291
238 249 248 291 346 172 201 220 221 203 227 210 221 216 219 213 213 207 207 174 189 205 193 221 227 218 211 202 205 220 216 216 223 196 202 171 225 204 208 194 135 348 257 213 185 266 198 261 117 168 236 246 228 218 226 229 237 252 239 223 221 216 211 208 215 219 222 244 242 253 257 256 242 246 248 255 276 283 277 255 270 274 274 282 294 295 283 276
308 73 296 318 227 214 176 202 207 200 214 210 223 208 228 225 230 206 216 195 202 170 187 210 220 223 200 202 208 226 232 222 223 211 170 172 214 182 175 245 147 155 190 205 178 258 204 246 69 150 243 257 157 205 222 231 247 255 256 229 218 209 225 206 220 215 202 238 229 241 254 256 223 234 261 264 263 271 276 272 259 274 292 297 289 269 268 278
103 250 275 283 292 289 227 189 204 194 220 210 210 209 214 221 226 200 238 200 217 219 204 211 221 215 203 202 213 222 229 220 223 215 174 196 196 185 206 181 179 182 174 202 196 193 204 176 178 179 229 251 149 151 82 247 283 275 255 224 212 216 217 208 217 194 206 215 230 235 240 248 238 235 264 264 247 255 257 270 305 287 201 242 258 269 284 289